When you browse on this site, cookies collect data to enhance your experience and personalize the content and advertising you see.
Visit our Privacy Policy to learn more. By continuing to use the site, you agree to this use of cookies and data.
  • In Hungary
  • List of Countries
  • For 7 days
  • Water Temperature
  • Satellite Maps
  • Weather Map
  • News
  • Weather Widgets
  • user-avatar
    Login

    Hourly Weather Feodosia

    Today, 16 November, Friday

    Time Temperature Precipitation Wind Pressure Humidity
    00:00 +2°C° 0.3 mm 8 mps 762 mmHg 88%
    01:00 +2°C° 0.3 mm 8 mps 762 mmHg 88%
    02:00 +3°C° 0 mm 7 mps 762 mmHg 88%
    03:00 +3°C° 0.1 mm 7 mps 762 mmHg 88%
    04:00 +3°C° 0.1 mm 7 mps 762 mmHg 89%
    05:00 +3°C° 0.1 mm 7 mps 762 mmHg 90%
    06:00 +3°C° 0.3 mm 7 mps 762 mmHg 90%
    07:00 +4°C° 0.3 mm 7 mps 762 mmHg 90%
    08:00 +4°C° 0 mm 8 mps 762 mmHg 90%
    09:00 +4°C° 0.8 mm 8 mps 763 mmHg 90%
    10:00 +4°C° 0.8 mm 8 mps 763 mmHg 90%
    11:00 +4°C° 0.8 mm 8 mps 763 mmHg 89%
    12:00 +4°C° 0.4 mm 8 mps 763 mmHg 88%
    13:00 +5°C° 0.4 mm 8 mps 764 mmHg 86%
    14:00 +5°C° 0 mm 8 mps 764 mmHg 84%
    15:00 +5°C° 0.1 mm 8 mps 764 mmHg 84%
    16:00 +5°C° 0.1 mm 9 mps 764 mmHg 85%
    17:00 +3°C° 0.1 mm 9 mps 765 mmHg 85%
    18:00 +3°C° 0.1 mm 9 mps 765 mmHg 86%
    19:00 +3°C° 0.1 mm 9 mps 765 mmHg 86%
    20:00 +4°C° 0.1 mm 8 mps 766 mmHg 86%
    21:00 +4°C° 0.1 mm 8 mps 766 mmHg 86%
    22:00 +4°C° 0.1 mm 8 mps 766 mmHg 86%
    23:00 +4°C° 0.1 mm 7 mps 766 mmHg 86%

    Tomorrow, 17 November, Saturday

    Time Temperature Precipitation Wind Pressure Humidity
    00:00 +4°C° 0.1 mm 7 mps 767 mmHg 86%
    01:00 +4°C° 0.1 mm 7 mps 767 mmHg 87%
    02:00 +4°C° 0.1 mm 7 mps 767 mmHg 87%
    03:00 +4°C° 0.1 mm 7 mps 768 mmHg 87%
    04:00 +4°C° 0.1 mm 7 mps 768 mmHg 87%
    05:00 +4°C° 0.1 mm 6 mps 768 mmHg 87%
    06:00 +4°C° 0 mm 6 mps 768 mmHg 87%
    07:00 +4°C° 0 mm 6 mps 768 mmHg 86%
    08:00 +5°C° 0 mm 5 mps 769 mmHg 86%
    09:00 +5°C° 0 mm 5 mps 769 mmHg 85%
    10:00 +5°C° 0 mm 5 mps 769 mmHg 85%
    11:00 +6°C° 0 mm 5 mps 769 mmHg 84%
    12:00 +6°C° 0.1 mm 5 mps 769 mmHg 84%
    13:00 +6°C° 0.1 mm 5 mps 769 mmHg 85%
    14:00 +6°C° 0.1 mm 5 mps 769 mmHg 85%
    15:00 +6°C° 0.1 mm 5 mps 769 mmHg 86%
    16:00 +6°C° 0.1 mm 5 mps 769 mmHg 87%
    17:00 +5°C° 0.1 mm 5 mps 769 mmHg 87%
    18:00 +5°C° 0 mm 5 mps 769 mmHg 87%
    19:00 +5°C° 0 mm 5 mps 769 mmHg 88%
    20:00 +5°C° 0 mm 4 mps 769 mmHg 88%
    21:00 +5°C° 0 mm 5 mps 769 mmHg 88%
    22:00 +5°C° 0 mm 5 mps 769 mmHg 88%
    23:00 +5°C° 0 mm 5 mps 769 mmHg 88%

    Day after tomorrow, 18 November, Sunday

    Time Temperature Precipitation Wind Pressure Humidity
    00:00 +5°C° 0 mm 4 mps 769 mmHg 88%
    01:00 +5°C° 0 mm 4 mps 769 mmHg 88%
    02:00 +5°C° 0 mm 3 mps 768 mmHg 88%
    03:00 +5°C° 0 mm 4 mps 768 mmHg 89%
    04:00 +4°C° 0 mm 4 mps 768 mmHg 89%
    05:00 +4°C° 0 mm 4 mps 767 mmHg 90%
    06:00 +4°C° 0 mm 4 mps 767 mmHg 89%
    07:00 +4°C° 0 mm 4 mps 767 mmHg 88%
    08:00 +4°C° 0 mm 4 mps 767 mmHg 88%
    09:00 +4°C° 0 mm 4 mps 767 mmHg 85%
    10:00 +5°C° 0 mm 3 mps 767 mmHg 81%
    11:00 +5°C° 0 mm 3 mps 767 mmHg 78%
    12:00 +5°C° 0 mm 3 mps 766 mmHg 76%
    13:00 +7°C° 0 mm 3 mps 766 mmHg 75%
    14:00 +7°C° 0 mm 2 mps 765 mmHg 73%
    15:00 +6°C° 0 mm 2 mps 765 mmHg 75%
    16:00 +6°C° 0 mm 2 mps 765 mmHg 77%
    17:00 +6°C° 0 mm 2 mps 765 mmHg 79%
    18:00 +5°C° 0 mm 2 mps 765 mmHg 81%
    19:00 +5°C° 0 mm 2 mps 764 mmHg 83%
    20:00 +5°C° 0 mm 2 mps 764 mmHg 85%
    21:00 +5°C° 0 mm 2 mps 764 mmHg 86%
    22:00 +5°C° 0 mm 2 mps 764 mmHg 87%
    23:00 +5°C° 0 mm 2 mps 764 mmHg 88%

    19 November, Monday

    Time Temperature Precipitation Wind Pressure Humidity
    00:00 +4°C° 0.1 mm 3 mps 764 mmHg 88%
    01:00 +4°C° 0.1 mm 3 mps 763 mmHg 89%
    02:00 +4°C° 0.1 mm 4 mps 763 mmHg 89%
    03:00 +4°C° 0.1 mm 4 mps 763 mmHg 90%
    04:00 +5°C° 0.1 mm 5 mps 762 mmHg 90%
    05:00 +5°C° 0.1 mm 5 mps 762 mmHg 91%
    06:00 +4°C° 0 mm 6 mps 762 mmHg 89%
    07:00 +4°C° 0 mm 6 mps 762 mmHg 88%
    08:00 +5°C° 0 mm 7 mps 762 mmHg 86%
    09:00 +5°C° 0 mm 7 mps 761 mmHg 83%
    10:00 +6°C° 0 mm 7 mps 761 mmHg 79%
    11:00 +6°C° 0 mm 7 mps 761 mmHg 75%
    12:00 +6°C° 1.1 mm 7 mps 760 mmHg 79%
    13:00 +6°C° 1.1 mm 7 mps 760 mmHg 84%
    14:00 +5°C° 1.1 mm 7 mps 760 mmHg 88%
    15:00 +6°C° 1.2 mm 7 mps 759 mmHg 89%
    16:00 +6°C° 1.2 mm 7 mps 759 mmHg 90%
    17:00 +6°C° 1.2 mm 8 mps 759 mmHg 91%
    18:00 +7°C° 1.2 mm 8 mps 759 mmHg 91%
    19:00 +7°C° 1.2 mm 8 mps 759 mmHg 90%
    20:00 +7°C° 1.2 mm 9 mps 759 mmHg 90%
    21:00 +9°C° 0.6 mm 8 mps 759 mmHg 91%
    22:00 +9°C° 0.6 mm 7 mps 759 mmHg 91%
    23:00 +9°C° 0.6 mm 7 mps 759 mmHg 92%

    20 November, Tuesday

    Time Temperature Precipitation Wind Pressure Humidity
    00:00 +9°C° 0 mm 6 mps 759 mmHg 92%
    01:00 +9°C° 0 mm 5 mps 759 mmHg 93%
    02:00 +10°C° 0 mm 5 mps 759 mmHg 93%
    03:00 +9°C° 0 mm 5 mps 759 mmHg 93%
    04:00 +10°C° 0 mm 4 mps 759 mmHg 93%
    05:00 +8°C° 0 mm 4 mps 760 mmHg 94%
    06:00 +8°C° 0 mm 4 mps 760 mmHg 93%
    07:00 +8°C° 0 mm 4 mps 761 mmHg 92%
    08:00 +9°C° 0 mm 3 mps 761 mmHg 91%
    09:00 +10°C° 0 mm 3 mps 762 mmHg 87%
    10:00 +10°C° 0 mm 3 mps 762 mmHg 83%
    11:00 +11°C° 0 mm 3 mps 762 mmHg 79%
    12:00 +12°C° 0 mm 2 mps 762 mmHg 78%
    13:00 +12°C° 0 mm 2 mps 762 mmHg 78%
    14:00 +12°C° 0 mm 2 mps 762 mmHg 78%
    15:00 +12°C° 0 mm 2 mps 762 mmHg 82%
    16:00 +10°C° 0 mm 2 mps 762 mmHg 85%
    17:00 +9°C° 0 mm 2 mps 763 mmHg 89%
    18:00 +9°C° 0 mm 2 mps 763 mmHg 91%
    19:00 +9°C° 0 mm 3 mps 762 mmHg 92%
    20:00 +9°C° 0 mm 3 mps 762 mmHg 93%
    21:00 +10°C° 0 mm 3 mps 762 mmHg 93%
    22:00 +10°C° 0 mm 3 mps 762 mmHg 93%
    23:00 +10°C° 0 mm 3 mps 761 mmHg 93%

    21 November, Wednesday

    Time Temperature Precipitation Wind Pressure Humidity
    00:00 +11°C° 0.1 mm 3 mps 761 mmHg 93%
    01:00 +12°C° 0.1 mm 3 mps 760 mmHg 92%
    02:00 +12°C° 0.1 mm 3 mps 760 mmHg 92%
    03:00 +12°C° 0.4 mm 3 mps 760 mmHg 91%
    04:00 +12°C° 0.4 mm 3 mps 760 mmHg 91%
    05:00 +14°C° 0.4 mm 2 mps 759 mmHg 90%
    06:00 +13°C° 0.2 mm 3 mps 759 mmHg 89%
    07:00 +13°C° 0.2 mm 3 mps 759 mmHg 88%
    08:00 +13°C° 0.2 mm 4 mps 759 mmHg 88%
    09:00 +14°C° 0.2 mm 4 mps 759 mmHg 85%
    10:00 +15°C° 0.2 mm 4 mps 759 mmHg 82%
    11:00 +15°C° 0.2 mm 5 mps 758 mmHg 80%
    12:00 +16°C° 0 mm 5 mps 758 mmHg 78%
    13:00 +16°C° 0 mm 5 mps 758 mmHg 75%
    14:00 +18°C° 0 mm 4 mps 757 mmHg 73%
    15:00 +17°C° 0 mm 4 mps 757 mmHg 77%
    16:00 +15°C° 0 mm 4 mps 757 mmHg 80%
    17:00 +14°C° 0 mm 4 mps 757 mmHg 84%
    18:00 +14°C° 0.1 mm 4 mps 757 mmHg 82%
    19:00 +14°C° 0.1 mm 4 mps 757 mmHg 81%
    20:00 +14°C° 0.1 mm 4 mps 757 mmHg 80%
    21:00 +14°C° 0.6 mm 4 mps 757 mmHg 82%
    22:00 +14°C° 0.6 mm 3 mps 757 mmHg 84%
    23:00 +14°C° 0.6 mm 3 mps 756 mmHg 86%
    Show more